Year,Month,Day,Hour,Minute,Value (Times are PST for temperature in C)
2018,05,21,00,00,11.80
2018,05,21,00,01,11.80
2018,05,21,00,02,11.80
2018,05,21,00,03,11.80
2018,05,21,00,04,11.80
2018,05,21,00,05,11.80
2018,05,21,00,06,11.80
2018,05,21,00,07,11.80
2018,05,21,00,08,11.80
2018,05,21,00,09,11.80
2018,05,21,00,10,11.90
2018,05,21,00,11,11.90
2018,05,21,00,12,11.90
2018,05,21,00,13,11.90
2018,05,21,00,14,11.90
2018,05,21,00,15,11.90
2018,05,21,00,16,11.90
2018,05,21,00,17,11.90
2018,05,21,00,18,12.00
2018,05,21,00,19,12.00
2018,05,21,00,20,12.00
2018,05,21,00,21,12.00
2018,05,21,00,22,12.10
2018,05,21,00,23,12.10
2018,05,21,00,24,12.10
2018,05,21,00,25,12.10
2018,05,21,00,26,12.10
2018,05,21,00,27,12.10
2018,05,21,00,28,12.10
2018,05,21,00,29,12.10
2018,05,21,00,30,12.10
2018,05,21,00,31,12.10
2018,05,21,00,32,12.10
2018,05,21,00,33,12.20
2018,05,21,00,34,12.20
2018,05,21,00,35,12.20
2018,05,21,00,36,12.20
2018,05,21,00,37,12.20
2018,05,21,00,38,12.20
2018,05,21,00,39,12.30
2018,05,21,00,40,12.30
2018,05,21,00,41,12.30
2018,05,21,00,42,12.30
2018,05,21,00,43,12.30
2018,05,21,00,44,12.30
2018,05,21,00,45,12.30
2018,05,21,00,46,12.30
2018,05,21,00,47,12.30
2018,05,21,00,48,12.30
2018,05,21,00,49,12.30
2018,05,21,00,50,12.20
2018,05,21,00,51,12.20
2018,05,21,00,52,12.30
2018,05,21,00,53,12.30
2018,05,21,00,54,12.30
2018,05,21,00,55,12.30
2018,05,21,00,56,12.30
2018,05,21,00,57,12.30
2018,05,21,00,58,12.40
2018,05,21,00,59,12.40
2018,05,21,01,00,12.40
2018,05,21,01,01,12.40
2018,05,21,01,02,12.40
2018,05,21,01,03,12.40
2018,05,21,01,04,12.40
2018,05,21,01,05,12.40
2018,05,21,01,06,12.40
2018,05,21,01,07,12.40
2018,05,21,01,08,12.40
2018,05,21,01,09,12.40
2018,05,21,01,10,12.40
2018,05,21,01,11,12.40
2018,05,21,01,12,12.40
2018,05,21,01,13,12.30
2018,05,21,01,14,12.30
2018,05,21,01,15,12.30
2018,05,21,01,16,12.30
2018,05,21,01,17,12.30
2018,05,21,01,18,12.20
2018,05,21,01,19,12.20
2018,05,21,01,20,12.20
2018,05,21,01,21,12.20
2018,05,21,01,22,12.10
2018,05,21,01,23,12.10
2018,05,21,01,24,12.10
2018,05,21,01,25,12.00
2018,05,21,01,26,12.00
2018,05,21,01,27,12.00
2018,05,21,01,28,11.90
2018,05,21,01,29,11.90
2018,05,21,01,30,11.90
2018,05,21,01,31,11.80
2018,05,21,01,32,11.80
2018,05,21,01,33,11.80
2018,05,21,01,34,11.80
2018,05,21,01,35,11.70
2018,05,21,01,36,11.70
2018,05,21,01,37,11.70
2018,05,21,01,38,11.70
2018,05,21,01,39,11.60
2018,05,21,01,40,11.60
2018,05,21,01,41,11.60
2018,05,21,01,42,11.50
2018,05,21,01,43,11.50
2018,05,21,01,44,11.40
2018,05,21,01,45,11.40
2018,05,21,01,46,11.40
2018,05,21,01,47,11.40
2018,05,21,01,48,11.30
2018,05,21,01,49,11.30
2018,05,21,01,50,11.30
2018,05,21,01,51,11.30
2018,05,21,01,52,11.20
2018,05,21,01,53,11.20
2018,05,21,01,54,11.20
2018,05,21,01,55,11.20
2018,05,21,01,56,11.20
2018,05,21,01,57,11.10
2018,05,21,01,58,11.10
2018,05,21,01,59,11.10
2018,05,21,02,00,11.10
2018,05,21,02,01,11.10
2018,05,21,02,02,11.00
2018,05,21,02,03,11.00
2018,05,21,02,04,11.00
2018,05,21,02,05,11.00
2018,05,21,02,06,11.00
2018,05,21,02,07,10.90
2018,05,21,02,08,10.90
2018,05,21,02,09,10.90
2018,05,21,02,10,10.90
2018,05,21,02,11,10.90
2018,05,21,02,12,10.90
2018,05,21,02,13,10.90
2018,05,21,02,14,10.90
2018,05,21,02,15,10.90
2018,05,21,02,16,10.90
2018,05,21,02,17,10.90
2018,05,21,02,18,10.90
2018,05,21,02,19,10.90
2018,05,21,02,20,10.90
2018,05,21,02,21,10.90
2018,05,21,02,22,10.90
2018,05,21,02,23,10.90
2018,05,21,02,24,10.90
2018,05,21,02,25,10.90
2018,05,21,02,26,10.90
2018,05,21,02,27,10.90
2018,05,21,02,28,10.90
2018,05,21,02,29,10.90
2018,05,21,02,30,10.90
2018,05,21,02,31,10.90
2018,05,21,02,32,10.90
2018,05,21,02,33,10.90
2018,05,21,02,34,10.90
2018,05,21,02,35,10.90
2018,05,21,02,36,10.90
2018,05,21,02,37,10.90
2018,05,21,02,38,10.90
2018,05,21,02,39,10.90
2018,05,21,02,40,10.90
2018,05,21,02,41,10.90
2018,05,21,02,42,10.90
2018,05,21,02,43,10.90
2018,05,21,02,44,10.90
2018,05,21,02,45,10.90
2018,05,21,02,46,10.90
2018,05,21,02,47,10.90
2018,05,21,02,48,10.90
2018,05,21,02,49,10.90
2018,05,21,02,50,10.90
2018,05,21,02,51,10.90
2018,05,21,02,52,10.90
2018,05,21,02,53,10.90
2018,05,21,02,54,10.90
2018,05,21,02,55,11.00
2018,05,21,02,56,11.00
2018,05,21,02,57,11.00
2018,05,21,02,58,11.00
2018,05,21,02,59,10.90
2018,05,21,03,00,10.90
2018,05,21,03,01,10.90
2018,05,21,03,02,10.90
2018,05,21,03,03,10.90
2018,05,21,03,04,10.90
2018,05,21,03,05,10.90
2018,05,21,03,06,10.90
2018,05,21,03,07,10.90
2018,05,21,03,08,11.00
2018,05,21,03,09,11.00
2018,05,21,03,10,11.10
2018,05,21,03,11,11.10
2018,05,21,03,12,11.10
2018,05,21,03,13,11.10
2018,05,21,03,14,11.20
2018,05,21,03,15,11.20
2018,05,21,03,16,11.20
2018,05,21,03,17,11.20
2018,05,21,03,18,11.20
2018,05,21,03,19,11.30
2018,05,21,03,20,11.30
2018,05,21,03,21,11.30
2018,05,21,03,22,11.30
2018,05,21,03,23,11.30
2018,05,21,03,24,11.30
2018,05,21,03,25,11.30
2018,05,21,03,26,11.30
2018,05,21,03,27,11.30
2018,05,21,03,28,11.30
2018,05,21,03,29,11.30
2018,05,21,03,30,11.30
2018,05,21,03,31,11.30
2018,05,21,03,32,11.30
2018,05,21,03,33,11.30
2018,05,21,03,34,11.30
2018,05,21,03,35,11.30
2018,05,21,03,36,11.30
2018,05,21,03,37,11.30
2018,05,21,03,38,11.30
2018,05,21,03,39,11.30
2018,05,21,03,40,11.30
2018,05,21,03,41,11.30
2018,05,21,03,42,11.20
2018,05,21,03,43,11.20
2018,05,21,03,44,11.20
2018,05,21,03,45,11.20
2018,05,21,03,46,11.20
2018,05,21,03,47,11.10
2018,05,21,03,48,11.10
2018,05,21,03,49,11.10
2018,05,21,03,50,11.00
2018,05,21,03,51,11.00
2018,05,21,03,52,10.90
2018,05,21,03,53,10.90
2018,05,21,03,54,10.90
2018,05,21,03,55,10.80
2018,05,21,03,56,10.80
2018,05,21,03,57,10.80
2018,05,21,03,58,10.70
2018,05,21,03,59,10.70
2018,05,21,04,00,10.70
2018,05,21,04,01,10.70
2018,05,21,04,02,10.70
2018,05,21,04,03,10.70
2018,05,21,04,04,10.70
2018,05,21,04,05,10.70
2018,05,21,04,06,10.80
2018,05,21,04,07,10.80
2018,05,21,04,08,10.80
2018,05,21,04,09,10.70
2018,05,21,04,10,10.70
2018,05,21,04,11,10.70
2018,05,21,04,12,10.70
2018,05,21,04,13,10.60
2018,05,21,04,14,10.60
2018,05,21,04,15,10.50
2018,05,21,04,16,10.40
2018,05,21,04,17,10.40
2018,05,21,04,18,10.30
2018,05,21,04,19,10.30
2018,05,21,04,20,10.30
2018,05,21,04,21,10.20
2018,05,21,04,22,10.20
2018,05,21,04,23,10.10
2018,05,21,04,24,10.10
2018,05,21,04,25,10.00
2018,05,21,04,26,10.00
2018,05,21,04,27,9.90
2018,05,21,04,28,9.90
2018,05,21,04,29,9.80
2018,05,21,04,30,9.80
2018,05,21,04,31,9.80
2018,05,21,04,32,9.70
2018,05,21,04,33,9.70
2018,05,21,04,34,9.70
2018,05,21,04,35,9.60
2018,05,21,04,36,9.60
2018,05,21,04,37,9.50
2018,05,21,04,38,9.50
2018,05,21,04,39,9.50
2018,05,21,04,40,9.40
2018,05,21,04,41,9.40
2018,05,21,04,42,9.40
2018,05,21,04,43,9.40
2018,05,21,04,44,9.30
2018,05,21,04,45,9.30
2018,05,21,04,46,9.30
2018,05,21,04,47,9.30
2018,05,21,04,48,9.30
2018,05,21,04,49,9.30
2018,05,21,04,50,9.30
2018,05,21,04,51,9.30
2018,05,21,04,52,9.30
2018,05,21,04,53,9.30
2018,05,21,04,54,9.30
2018,05,21,04,55,9.30
2018,05,21,04,56,9.30
2018,05,21,04,57,9.30
2018,05,21,04,58,9.30
2018,05,21,04,59,9.30
2018,05,21,05,00,9.30
2018,05,21,05,01,9.30
2018,05,21,05,02,9.30
2018,05,21,05,03,9.30
2018,05,21,05,04,9.30
2018,05,21,05,05,9.30
2018,05,21,05,06,9.30
2018,05,21,05,07,9.30
2018,05,21,05,08,9.20
2018,05,21,05,09,9.20
2018,05,21,05,10,9.10
2018,05,21,05,11,9.10
2018,05,21,05,12,9.10
2018,05,21,05,13,9.20
2018,05,21,05,14,9.20
2018,05,21,05,15,9.20
2018,05,21,05,16,9.20
2018,05,21,05,17,9.20
2018,05,21,05,18,9.20
2018,05,21,05,19,9.20
2018,05,21,05,20,9.20
2018,05,21,05,21,9.20
2018,05,21,05,22,9.20
2018,05,21,05,23,9.20
2018,05,21,05,24,9.20
2018,05,21,05,25,9.10
2018,05,21,05,26,9.10
2018,05,21,05,27,9.10
2018,05,21,05,28,9.10
2018,05,21,05,29,9.00
2018,05,21,05,30,9.00
2018,05,21,05,31,9.00
2018,05,21,05,32,9.00
2018,05,21,05,33,8.90
2018,05,21,05,34,8.90
2018,05,21,05,35,8.90
2018,05,21,05,36,8.90
2018,05,21,05,37,8.90
2018,05,21,05,38,8.90
2018,05,21,05,39,9.00
2018,05,21,05,40,9.00
2018,05,21,05,41,9.10
2018,05,21,05,42,9.10
2018,05,21,05,43,9.10
2018,05,21,05,44,9.10
2018,05,21,05,45,9.00
2018,05,21,05,46,9.00
2018,05,21,05,47,8.90
2018,05,21,05,48,8.90
2018,05,21,05,49,8.90
2018,05,21,05,50,8.80
2018,05,21,05,51,8.80
2018,05,21,05,52,8.80
2018,05,21,05,53,8.80
2018,05,21,05,54,8.80
2018,05,21,05,55,8.70
2018,05,21,05,56,8.70
2018,05,21,05,57,8.70
2018,05,21,05,58,8.70
2018,05,21,05,59,8.70
2018,05,21,06,00,8.70
2018,05,21,06,01,8.70
2018,05,21,06,02,8.70
2018,05,21,06,03,8.70
2018,05,21,06,04,8.70
2018,05,21,06,05,8.70
2018,05,21,06,06,8.70
2018,05,21,06,07,8.70
2018,05,21,06,08,8.80
2018,05,21,06,09,8.80
2018,05,21,06,10,8.80
2018,05,21,06,11,8.90
2018,05,21,06,12,8.90
2018,05,21,06,13,8.90
2018,05,21,06,14,8.90
2018,05,21,06,15,8.90
2018,05,21,06,16,8.90
2018,05,21,06,17,8.90
2018,05,21,06,18,8.80
2018,05,21,06,19,8.80
2018,05,21,06,20,8.80
2018,05,21,06,21,8.80
2018,05,21,06,22,8.80
2018,05,21,06,23,8.80
2018,05,21,06,24,8.80
2018,05,21,06,25,8.80
2018,05,21,06,26,8.80
2018,05,21,06,27,8.80
2018,05,21,06,28,8.80
2018,05,21,06,29,8.80
2018,05,21,06,30,8.80
2018,05,21,06,31,8.80
2018,05,21,06,32,8.80
2018,05,21,06,33,8.90
2018,05,21,06,34,8.90
2018,05,21,06,35,8.90
2018,05,21,06,36,9.00
2018,05,21,06,37,9.00
2018,05,21,06,38,9.10
2018,05,21,06,39,9.10
2018,05,21,06,40,9.20
2018,05,21,06,41,9.20
2018,05,21,06,42,9.20
2018,05,21,06,43,9.30
2018,05,21,06,44,9.30
2018,05,21,06,45,9.30
2018,05,21,06,46,9.40
2018,05,21,06,47,9.40
2018,05,21,06,48,9.40
2018,05,21,06,49,9.50
2018,05,21,06,50,9.50
2018,05,21,06,51,9.50
2018,05,21,06,52,9.60
2018,05,21,06,53,9.60
2018,05,21,06,54,9.60
2018,05,21,06,55,9.70
2018,05,21,06,56,9.70
2018,05,21,06,57,9.70
2018,05,21,06,58,9.80
2018,05,21,06,59,9.80
2018,05,21,07,00,9.80
2018,05,21,07,01,9.90
2018,05,21,07,02,9.90
2018,05,21,07,03,10.00
2018,05,21,07,04,10.00
2018,05,21,07,05,10.00
2018,05,21,07,06,10.10
2018,05,21,07,07,10.10
2018,05,21,07,08,10.20
2018,05,21,07,09,10.20
2018,05,21,07,10,10.20
2018,05,21,07,11,10.30
2018,05,21,07,12,10.30
2018,05,21,07,13,10.40
2018,05,21,07,14,10.40
2018,05,21,07,15,10.40
2018,05,21,07,16,10.50
2018,05,21,07,17,10.50
2018,05,21,07,18,10.60
2018,05,21,07,19,10.60
2018,05,21,07,20,10.60
2018,05,21,07,21,10.70
2018,05,21,07,22,10.70
2018,05,21,07,23,10.70
2018,05,21,07,24,10.80
2018,05,21,07,25,10.80
2018,05,21,07,26,10.80
2018,05,21,07,27,10.90
2018,05,21,07,28,10.90
2018,05,21,07,29,10.90
2018,05,21,07,30,11.00
2018,05,21,07,31,11.00
2018,05,21,07,32,11.10
2018,05,21,07,33,11.20
2018,05,21,07,34,11.20
2018,05,21,07,35,11.20
2018,05,21,07,36,11.30
2018,05,21,07,37,11.30
2018,05,21,07,38,11.30
2018,05,21,07,39,11.40
2018,05,21,07,40,11.40
2018,05,21,07,41,11.50
2018,05,21,07,42,11.50
2018,05,21,07,43,11.60
2018,05,21,07,44,11.60
2018,05,21,07,45,11.60
2018,05,21,07,46,11.70
2018,05,21,07,47,11.70
2018,05,21,07,48,11.70
2018,05,21,07,49,11.80
2018,05,21,07,50,11.80
2018,05,21,07,51,11.80
2018,05,21,07,52,11.80
2018,05,21,07,53,11.80
2018,05,21,07,54,11.80
2018,05,21,07,55,11.80
2018,05,21,07,56,11.80
2018,05,21,07,57,11.90
2018,05,21,07,58,11.90
2018,05,21,07,59,11.90
2018,05,21,08,00,11.90
2018,05,21,08,01,11.90
2018,05,21,08,02,11.90
2018,05,21,08,03,12.00
2018,05,21,08,04,12.00
2018,05,21,08,05,12.10
2018,05,21,08,06,12.10
2018,05,21,08,07,12.10
2018,05,21,08,08,12.10
2018,05,21,08,09,12.20
2018,05,21,08,10,12.20
2018,05,21,08,11,12.30
2018,05,21,08,12,12.30
2018,05,21,08,13,12.30
2018,05,21,08,14,12.40
2018,05,21,08,15,12.40
2018,05,21,08,16,12.40
2018,05,21,08,17,12.40
2018,05,21,08,18,12.40
2018,05,21,08,19,12.40
2018,05,21,08,20,12.50
2018,05,21,08,21,12.50
2018,05,21,08,22,12.60
2018,05,21,08,23,12.60
2018,05,21,08,24,12.60
2018,05,21,08,25,12.60
2018,05,21,08,26,12.60
2018,05,21,08,27,12.70
2018,05,21,08,28,12.70
2018,05,21,08,29,12.70
2018,05,21,08,30,12.80
2018,05,21,08,31,12.80
2018,05,21,08,32,12.80
2018,05,21,08,33,12.80
2018,05,21,08,34,12.80
2018,05,21,08,35,12.90
2018,05,21,08,36,12.90
2018,05,21,08,37,13.00
2018,05,21,08,38,13.00
2018,05,21,08,39,13.10
2018,05,21,08,40,13.10
2018,05,21,08,41,13.20
2018,05,21,08,42,13.30
2018,05,21,08,43,13.30
2018,05,21,08,44,13.40
2018,05,21,08,45,13.40
2018,05,21,08,46,13.40
2018,05,21,08,47,13.50
2018,05,21,08,48,13.50
2018,05,21,08,49,13.50
2018,05,21,08,50,13.50
2018,05,21,08,51,13.60
2018,05,21,08,52,13.70
2018,05,21,08,53,13.80
2018,05,21,08,54,13.90
2018,05,21,08,55,14.00
2018,05,21,08,56,14.00
2018,05,21,08,57,14.10
2018,05,21,08,58,14.10
2018,05,21,08,59,14.10
2018,05,21,09,00,14.00
2018,05,21,09,01,14.00
2018,05,21,09,02,14.10
2018,05,21,09,03,14.10
2018,05,21,09,04,14.10
2018,05,21,09,05,14.10
2018,05,21,09,06,14.10
2018,05,21,09,07,14.10
2018,05,21,09,08,14.20
2018,05,21,09,09,14.20
2018,05,21,09,10,14.20
2018,05,21,09,11,14.30
2018,05,21,09,12,14.30
2018,05,21,09,13,14.30
2018,05,21,09,14,14.40
2018,05,21,09,15,14.40
2018,05,21,09,16,14.50
2018,05,21,09,17,14.50
2018,05,21,09,18,14.60
2018,05,21,09,19,14.60
2018,05,21,09,20,14.60
2018,05,21,09,21,14.70
2018,05,21,09,22,14.70
2018,05,21,09,23,14.70
2018,05,21,09,24,14.70
2018,05,21,09,25,14.80
2018,05,21,09,26,14.80
2018,05,21,09,27,14.90
2018,05,21,09,28,15.00
2018,05,21,09,29,15.10
2018,05,21,09,30,15.20
2018,05,21,09,31,15.30
2018,05,21,09,32,15.40
2018,05,21,09,33,15.50
2018,05,21,09,34,15.60
2018,05,21,09,35,15.70
2018,05,21,09,36,15.80
2018,05,21,09,37,15.80
2018,05,21,09,38,15.90
2018,05,21,09,39,15.90
2018,05,21,09,40,16.00
2018,05,21,09,41,16.10
2018,05,21,09,42,16.20
2018,05,21,09,43,16.30
2018,05,21,09,44,16.40
2018,05,21,09,45,16.40
2018,05,21,09,46,16.50
2018,05,21,09,47,16.60
2018,05,21,09,48,16.60
2018,05,21,09,49,16.60
2018,05,21,09,50,16.60
2018,05,21,09,51,16.60
2018,05,21,09,52,16.70
2018,05,21,09,53,16.80
2018,05,21,09,54,16.80
2018,05,21,09,55,16.80
2018,05,21,09,56,16.90
2018,05,21,09,57,16.80
2018,05,21,09,58,16.80
2018,05,21,09,59,16.80
2018,05,21,10,00,16.80
2018,05,21,10,01,16.80
2018,05,21,10,02,16.80
2018,05,21,10,03,16.80
2018,05,21,10,04,16.80
2018,05,21,10,05,16.90
2018,05,21,10,06,16.90
2018,05,21,10,07,16.90
2018,05,21,10,08,16.80
2018,05,21,10,09,16.70
2018,05,21,10,10,16.70
2018,05,21,10,11,16.60
2018,05,21,10,12,16.50
2018,05,21,10,13,16.50
2018,05,21,10,14,16.60
2018,05,21,10,15,16.60
2018,05,21,10,16,16.70
2018,05,21,10,17,16.80
2018,05,21,10,18,16.80
2018,05,21,10,19,16.80
2018,05,21,10,20,16.80
2018,05,21,10,21,16.80
2018,05,21,10,22,16.80
2018,05,21,10,23,16.80
2018,05,21,10,24,16.80
2018,05,21,10,25,16.70
2018,05,21,10,26,16.70
2018,05,21,10,27,16.70
2018,05,21,10,28,16.70
2018,05,21,10,29,16.70
2018,05,21,10,30,16.70
2018,05,21,10,31,16.70
2018,05,21,10,32,16.80
2018,05,21,10,33,16.80
2018,05,21,10,34,16.80
2018,05,21,10,35,16.80
2018,05,21,10,36,16.80
2018,05,21,10,37,16.80
2018,05,21,10,38,16.80
2018,05,21,10,39,16.80
2018,05,21,10,40,16.70
2018,05,21,10,41,16.70
2018,05,21,10,42,16.70
2018,05,21,10,43,16.70
2018,05,21,10,44,16.60
2018,05,21,10,45,16.60
2018,05,21,10,46,16.60
2018,05,21,10,47,16.70
2018,05,21,10,48,16.70
2018,05,21,10,49,16.70
2018,05,21,10,50,16.80
2018,05,21,10,51,16.80
2018,05,21,10,52,16.80
2018,05,21,10,53,16.90
2018,05,21,10,54,16.90
2018,05,21,10,55,17.00
2018,05,21,10,56,17.10
2018,05,21,10,57,17.10
2018,05,21,10,58,17.10
2018,05,21,10,59,17.10
2018,05,21,11,00,17.10
2018,05,21,11,01,17.20
2018,05,21,11,02,17.20
2018,05,21,11,03,17.20
2018,05,21,11,04,17.30
2018,05,21,11,05,17.30
2018,05,21,11,06,17.30
2018,05,21,11,07,17.30
2018,05,21,11,08,17.20
2018,05,21,11,09,17.20
2018,05,21,11,10,17.10
2018,05,21,11,11,17.00
2018,05,21,11,12,17.00
2018,05,21,11,13,16.90
2018,05,21,11,14,16.90
2018,05,21,11,15,16.90
2018,05,21,11,16,16.90
2018,05,21,11,17,16.90
2018,05,21,11,18,16.90
2018,05,21,11,19,16.80
2018,05,21,11,20,16.80
2018,05,21,11,21,16.80
2018,05,21,11,22,16.70
2018,05,21,11,23,16.70
2018,05,21,11,24,16.70
2018,05,21,11,25,16.60
2018,05,21,11,26,16.60
2018,05,21,11,27,16.50
2018,05,21,11,28,16.50
2018,05,21,11,29,16.50
2018,05,21,11,30,16.50
2018,05,21,11,31,16.50
2018,05,21,11,32,16.50
2018,05,21,11,33,16.50
2018,05,21,11,34,16.60
2018,05,21,11,35,16.60
2018,05,21,11,36,16.70
2018,05,21,11,37,16.80
2018,05,21,11,38,16.90
2018,05,21,11,39,17.00
2018,05,21,11,40,17.20
2018,05,21,11,41,17.30
2018,05,21,11,42,17.40
2018,05,21,11,43,17.40
2018,05,21,11,44,17.50
2018,05,21,11,45,17.60
2018,05,21,11,46,17.70
2018,05,21,11,47,17.80
2018,05,21,11,48,17.80
2018,05,21,11,49,17.90
2018,05,21,11,50,17.90
2018,05,21,11,51,18.00
2018,05,21,11,52,17.90
2018,05,21,11,53,17.90
2018,05,21,11,54,17.90
2018,05,21,11,55,17.80
2018,05,21,11,56,17.70
2018,05,21,11,57,17.70
2018,05,21,11,58,17.70
2018,05,21,11,59,17.70
2018,05,21,12,00,17.70
2018,05,21,12,01,17.70
2018,05,21,12,02,17.70
2018,05,21,12,03,17.70
2018,05,21,12,04,17.70
2018,05,21,12,05,17.70
2018,05,21,12,06,17.70
2018,05,21,12,07,17.60
2018,05,21,12,08,17.60
2018,05,21,12,09,17.50
2018,05,21,12,10,17.40
2018,05,21,12,11,17.40
2018,05,21,12,12,17.40
2018,05,21,12,13,17.40
2018,05,21,12,14,17.40
2018,05,21,12,15,17.30
2018,05,21,12,16,17.30
2018,05,21,12,17,17.40
2018,05,21,12,18,17.40
2018,05,21,12,19,17.40
2018,05,21,12,20,17.40
2018,05,21,12,21,17.40
2018,05,21,12,22,17.50
2018,05,21,12,23,17.50
2018,05,21,12,24,17.50
2018,05,21,12,25,17.50
2018,05,21,12,26,17.60
2018,05,21,12,27,17.60
2018,05,21,12,28,17.70
2018,05,21,12,29,17.70
2018,05,21,12,30,17.80
2018,05,21,12,31,17.90
2018,05,21,12,32,17.90
2018,05,21,12,33,18.00
2018,05,21,12,34,18.10
2018,05,21,12,35,18.10
2018,05,21,12,36,18.10
2018,05,21,12,37,18.10
2018,05,21,12,38,18.10
2018,05,21,12,39,18.10
2018,05,21,12,40,18.10
2018,05,21,12,41,18.20
2018,05,21,12,42,18.30
2018,05,21,12,43,18.30
2018,05,21,12,44,18.40
2018,05,21,12,45,18.40
2018,05,21,12,46,18.40
2018,05,21,12,47,18.50
2018,05,21,12,48,18.60
2018,05,21,12,49,18.70
2018,05,21,12,50,18.80
2018,05,21,12,51,18.90
2018,05,21,12,52,19.00
2018,05,21,12,53,19.10
2018,05,21,12,54,19.20
2018,05,21,12,55,19.20
2018,05,21,12,56,19.20
2018,05,21,12,57,19.20
2018,05,21,12,58,19.10
2018,05,21,12,59,19.00
2018,05,21,13,00,19.00
2018,05,21,13,01,18.90
2018,05,21,13,02,18.90
2018,05,21,13,03,19.00
2018,05,21,13,04,19.20
2018,05,21,13,05,19.30
2018,05,21,13,06,19.40
2018,05,21,13,07,19.50
2018,05,21,13,08,19.60
2018,05,21,13,09,19.70
2018,05,21,13,10,19.80
2018,05,21,13,11,19.80
2018,05,21,13,12,19.70
2018,05,21,13,13,19.60
2018,05,21,13,14,19.50
2018,05,21,13,15,19.40
2018,05,21,13,16,19.40
2018,05,21,13,17,19.30
2018,05,21,13,18,19.30
2018,05,21,13,19,19.30
2018,05,21,13,20,19.30
2018,05,21,13,21,19.30
2018,05,21,13,22,19.30
2018,05,21,13,23,19.30
2018,05,21,13,24,19.30
2018,05,21,13,25,19.20
2018,05,21,13,26,19.20
2018,05,21,13,27,19.20
2018,05,21,13,28,19.20
2018,05,21,13,29,19.30
2018,05,21,13,30,19.40
2018,05,21,13,31,19.50
2018,05,21,13,32,19.60
2018,05,21,13,33,19.60
2018,05,21,13,34,19.60
2018,05,21,13,35,19.60
2018,05,21,13,36,19.50
2018,05,21,13,37,19.60
2018,05,21,13,38,19.60
2018,05,21,13,39,19.60
2018,05,21,13,40,19.60
2018,05,21,13,41,19.60
2018,05,21,13,42,19.60
2018,05,21,13,43,19.60
2018,05,21,13,44,19.70
2018,05,21,13,45,19.70
2018,05,21,13,46,19.70
2018,05,21,13,47,19.60
2018,05,21,13,48,19.60
2018,05,21,13,49,19.60
2018,05,21,13,50,19.50
2018,05,21,13,51,19.60
2018,05,21,13,52,19.60
2018,05,21,13,53,19.60
2018,05,21,13,54,19.60
2018,05,21,13,55,19.60
2018,05,21,13,56,19.70
2018,05,21,13,57,19.70
2018,05,21,13,58,19.70
2018,05,21,13,59,19.70
2018,05,21,14,00,19.70
2018,05,21,14,01,19.80
2018,05,21,14,02,19.80
2018,05,21,14,03,19.80
2018,05,21,14,04,19.60
2018,05,21,14,05,19.50
2018,05,21,14,06,19.40
2018,05,21,14,07,19.30
2018,05,21,14,08,19.20
2018,05,21,14,09,19.10
2018,05,21,14,10,19.10
2018,05,21,14,11,19.10
2018,05,21,14,12,19.10
2018,05,21,14,13,19.10
2018,05,21,14,14,19.20
2018,05,21,14,15,19.20
2018,05,21,14,16,19.40
2018,05,21,14,17,19.50
2018,05,21,14,18,19.60
2018,05,21,14,19,19.60
2018,05,21,14,20,19.60
2018,05,21,14,21,19.70
2018,05,21,14,22,19.80
2018,05,21,14,23,19.90
2018,05,21,14,24,19.90
2018,05,21,14,25,19.90
2018,05,21,14,26,19.90
2018,05,21,14,27,19.80
2018,05,21,14,28,19.80
2018,05,21,14,29,19.90
2018,05,21,14,30,20.00
2018,05,21,14,31,20.00
2018,05,21,14,32,20.00
2018,05,21,14,33,19.90
2018,05,21,14,34,19.80
2018,05,21,14,35,19.70
2018,05,21,14,36,19.70
2018,05,21,14,37,19.60
2018,05,21,14,38,19.70
2018,05,21,14,39,19.80
2018,05,21,14,40,19.90
2018,05,21,14,41,19.90
2018,05,21,14,42,19.90
2018,05,21,14,43,19.80
2018,05,21,14,44,19.90
2018,05,21,14,45,20.00
2018,05,21,14,46,20.10
2018,05,21,14,47,20.20
2018,05,21,14,48,20.10
2018,05,21,14,49,20.10
2018,05,21,14,50,20.10
2018,05,21,14,51,20.00
2018,05,21,14,52,20.00
2018,05,21,14,53,19.90
2018,05,21,14,54,19.90
2018,05,21,14,55,19.90
2018,05,21,14,56,19.90
2018,05,21,14,57,19.90
2018,05,21,14,58,19.90
2018,05,21,14,59,19.90
2018,05,21,15,00,19.90
2018,05,21,15,01,19.90
2018,05,21,15,02,20.00
2018,05,21,15,03,20.10
2018,05,21,15,04,20.20
2018,05,21,15,05,20.20
2018,05,21,15,06,20.20
2018,05,21,15,07,20.20
2018,05,21,15,08,20.20
2018,05,21,15,09,20.10
2018,05,21,15,10,20.10
2018,05,21,15,11,20.00
2018,05,21,15,12,20.00
2018,05,21,15,13,19.90
2018,05,21,15,14,19.90
2018,05,21,15,15,19.90
2018,05,21,15,16,19.80
2018,05,21,15,17,19.80
2018,05,21,15,18,19.70
2018,05,21,15,19,19.70
2018,05,21,15,20,19.80
2018,05,21,15,21,19.80
2018,05,21,15,22,19.80
2018,05,21,15,23,19.80
2018,05,21,15,24,19.80
2018,05,21,15,25,19.80
2018,05,21,15,26,19.80
2018,05,21,15,27,19.80
2018,05,21,15,28,19.90
2018,05,21,15,29,19.90
2018,05,21,15,30,20.00
2018,05,21,15,31,20.00
2018,05,21,15,32,20.00
2018,05,21,15,33,20.00
2018,05,21,15,34,20.00
2018,05,21,15,35,20.00
2018,05,21,15,36,20.00
2018,05,21,15,37,20.00
2018,05,21,15,38,20.00
2018,05,21,15,39,19.90
2018,05,21,15,40,19.90
2018,05,21,15,41,19.80
2018,05,21,15,42,19.80
2018,05,21,15,43,19.90
2018,05,21,15,44,19.90
2018,05,21,15,45,19.90
2018,05,21,15,46,19.90
2018,05,21,15,47,19.90
2018,05,21,15,48,19.90
2018,05,21,15,49,20.00
2018,05,21,15,50,20.00
2018,05,21,15,51,20.00
2018,05,21,15,52,20.00
2018,05,21,15,53,20.00
2018,05,21,15,54,19.90
2018,05,21,15,55,19.90
2018,05,21,15,56,19.90
2018,05,21,15,57,20.00
2018,05,21,15,58,20.10
2018,05,21,15,59,20.10
2018,05,21,16,00,20.20
2018,05,21,16,01,20.20
2018,05,21,16,02,20.30
2018,05,21,16,03,20.30
2018,05,21,16,04,20.20
2018,05,21,16,05,20.20
2018,05,21,16,06,20.20
2018,05,21,16,07,20.20
2018,05,21,16,08,20.20
2018,05,21,16,09,20.20
2018,05,21,16,10,20.10
2018,05,21,16,11,20.10
2018,05,21,16,12,20.10
2018,05,21,16,13,20.10
2018,05,21,16,14,20.10
2018,05,21,16,15,20.10
2018,05,21,16,16,20.10
2018,05,21,16,17,20.10
2018,05,21,16,18,20.10
2018,05,21,16,19,20.10
2018,05,21,16,20,20.10
2018,05,21,16,21,20.10
2018,05,21,16,22,20.10
2018,05,21,16,23,20.10
2018,05,21,16,24,20.20
2018,05,21,16,25,20.20
2018,05,21,16,26,20.30
2018,05,21,16,27,20.30
2018,05,21,16,28,20.40
2018,05,21,16,29,20.40
2018,05,21,16,30,20.40
2018,05,21,16,31,20.40
2018,05,21,16,32,20.40
2018,05,21,16,33,20.40
2018,05,21,16,34,20.40
2018,05,21,16,35,20.30
2018,05,21,16,36,20.30
2018,05,21,16,37,20.30
2018,05,21,16,38,20.30
2018,05,21,16,39,20.30
2018,05,21,16,40,20.30
2018,05,21,16,41,20.30
2018,05,21,16,42,20.30
2018,05,21,16,43,20.30
2018,05,21,16,44,20.30
2018,05,21,16,45,20.30
2018,05,21,16,46,20.30
2018,05,21,16,47,20.30
2018,05,21,16,48,20.40
2018,05,21,16,49,20.40
2018,05,21,16,50,20.40
2018,05,21,16,51,20.40
2018,05,21,16,52,20.50
2018,05,21,16,53,20.50
2018,05,21,16,54,20.50
2018,05,21,16,55,20.50
2018,05,21,16,56,20.50
2018,05,21,16,57,20.50
2018,05,21,16,58,20.50
2018,05,21,16,59,20.50
2018,05,21,17,00,20.50
2018,05,21,17,01,20.50
2018,05,21,17,02,20.60
2018,05,21,17,03,20.60
2018,05,21,17,04,20.60
2018,05,21,17,05,20.60
2018,05,21,17,06,20.60
2018,05,21,17,07,20.60
2018,05,21,17,08,20.60
2018,05,21,17,09,20.60
2018,05,21,17,10,20.70
2018,05,21,17,11,20.70
2018,05,21,17,12,20.70
2018,05,21,17,13,20.70
2018,05,21,17,14,20.70
2018,05,21,17,15,20.70
2018,05,21,17,16,20.60
2018,05,21,17,17,20.60
2018,05,21,17,18,20.60
2018,05,21,17,19,20.60
2018,05,21,17,20,20.70
2018,05,21,17,21,20.70
2018,05,21,17,22,20.80
2018,05,21,17,23,20.80
2018,05,21,17,24,20.80
2018,05,21,17,25,20.80
2018,05,21,17,26,20.80